Location: Newark
(49.5647°N, 8.2922°E)
Time: 12:13:25
(UTC+00:00)

A-11 Canister half - Visible Passes

Search period start: 17 February 2020 00:00
Search period end: 27 February 2020 00:00
Orbit: 1525 x 1684 km, 47.3° (Epoch: 17 February)

Date Brightness Start Highest point End Pass type
(mag) Time Alt. Az. Time Alt. Az. Time Alt. Az.
17 Feb 11.1 18:23:46 10° W 18:29:43 19° SW 18:35:45 10° S visible
18 Feb 11.1 18:01:59 10° W 18:08:11 20° SW 18:14:28 10° S visible
19 Feb 11.2 17:40:13 10° W 17:46:38 21° SW 17:53:09 10° S visible
20 Feb 11.2 17:18:29 10° W 17:25:06 22° SW 17:31:49 10° S visible
